TimeCST,TemperatureF,Dew PointF,Humidity,Sea Level PressureIn,VisibilityMPH,Wind Direction,Wind SpeedMPH,Gust SpeedMPH,PrecipitationIn,Events,Conditions,WindDirDegrees,DateUTC
12:53 AM,54.0,41.0,62,30.06,10.0,South,5.8,-,N/A,,Partly Cloudy,190,2011-11-12 06:53:00
1:53 AM,53.1,42.1,66,30.04,10.0,South,4.6,-,N/A,,Partly Cloudy,190,2011-11-12 07:53:00
2:53 AM,53.1,43.0,69,30.01,10.0,SSW,5.8,-,N/A,,Clear,200,2011-11-12 08:53:00
3:53 AM,53.1,44.1,71,30.00,10.0,SSW,4.6,-,N/A,,Partly Cloudy,210,2011-11-12 09:53:00
4:53 AM,48.0,42.1,80,30.00,10.0,NW,3.5,-,N/A,,Partly Cloudy,320,2011-11-12 10:53:00
5:53 AM,48.9,43.0,80,30.00,10.0,Calm,Calm,-,N/A,,Partly Cloudy,0,2011-11-12 11:53:00
6:53 AM,48.0,43.0,83,30.01,10.0,NW,3.5,-,N/A,,Scattered Clouds,320,2011-11-12 12:53:00
7:53 AM,52.0,45.0,77,30.04,10.0,NW,3.5,-,N/A,,Mostly Cloudy,310,2011-11-12 13:53:00
8:53 AM,60.8,50.0,68,30.09,10.0,South,8.1,-,N/A,,Mostly Cloudy,190,2011-11-12 14:53:00
9:53 AM,64.9,53.1,65,30.04,10.0,South,9.2,17.3,N/A,,Overcast,190,2011-11-12 15:53:00
10:53 AM,68.0,55.0,63,30.02,10.0,South,6.9,-,N/A,,Overcast,180,2011-11-12 16:53:00
11:53 AM,73.0,55.9,55,30.00,10.0,South,16.1,23.0,N/A,,Mostly Cloudy,170,2011-11-12 17:53:00
12:53 PM,75.9,55.9,50,29.95,10.0,South,16.1,21.9,N/A,,Mostly Cloudy,170,2011-11-12 18:53:00
1:53 PM,77.0,55.9,48,29.91,10.0,South,15.0,19.6,N/A,,Mostly Cloudy,180,2011-11-12 19:53:00
2:53 PM,79.0,54.0,42,29.90,10.0,South,13.8,23.0,N/A,,Mostly Cloudy,180,2011-11-12 20:53:00
3:53 PM,79.0,54.0,42,29.89,10.0,South,16.1,21.9,N/A,,Scattered Clouds,190,2011-11-12 21:53:00
4:53 PM,77.0,55.0,47,29.89,10.0,South,16.1,-,N/A,,Scattered Clouds,180,2011-11-12 22:53:00
5:53 PM,73.9,55.0,52,29.91,10.0,SSE,9.2,-,N/A,,Mostly Cloudy,160,2011-11-12 23:53:00
6:53 PM,70.0,55.9,61,29.92,10.0,SSE,8.1,-,N/A,,Mostly Cloudy,150,2011-11-13 00:53:00
7:53 PM,68.0,57.2,68,29.97,10.0,SE,8.1,-,N/A,,Scattered Clouds,140,2011-11-13 01:53:00
8:53 PM,66.9,59.0,76,29.93,10.0,SSE,9.2,-,N/A,,Clear,150,2011-11-13 02:53:00
9:53 PM,68.0,60.1,76,29.94,10.0,SSE,9.2,-,N/A,,Clear,150,2011-11-13 03:53:00
10:53 PM,66.9,60.1,79,29.94,10.0,South,8.1,-,N/A,,Partly Cloudy,170,2011-11-13 04:53:00
11:53 PM,66.0,61.0,84,29.93,10.0,South,9.2,-,N/A,,Partly Cloudy,180,2011-11-13 05:53:00